This demonstration page uses our WeatherBlox Daily Observations layout. Learn more.

Left ArrowRight Arrow

Hourly Observations for June 30, 2022

Temp ( °F °C ) Dew Point ( °F °C ) Humidity (%) Winds ( mph kmh ) Pressure ( in mb ) Visibility ( mi km ) Precip ( " mm )
12:53 am 00:53 Clear 72 22.2 36 2.2 27 27 NNE 5 7 29.90 1012 10 16 0.00 0.00
1:53 am 01:53 Clear 70 21.1 37 2.8 30 30 N 3 6 29.90 1013 10 16 0.00 0.00
2:53 am 02:53 Clear 69 20.6 37 2.8 31 31 Calm 29.91 1013 10 16 0.00 0.00
3:53 am 03:53 Clear 65 18.3 39 3.9 39 39 Calm 29.92 1013 10 16 0.00 0.00
4:53 am 04:53 Clear 62 16.7 39 3.9 43 43 Calm 29.93 1013 10 16 0.00 0.00
5:53 am 05:53 Sunny 64 17.8 39 3.9 40 40 NNE 3 6 29.93 1014 10 16 0.00 0.00
6:53 am 06:53 Sunny 66 18.9 40 4.4 39 39 Calm 29.94 1014 10 16 0.00 0.00
7:53 am 07:53 Sunny 69 20.6 42 5.6 38 38 Calm 29.94 1014 10 16 0.00 0.00
8:53 am 08:53 Sunny 74 23.3 47 8.3 38 38 VRB 3 6 29.94 1014 10 16 0.00 0.00
9:53 am 09:53 Sunny 79 26.1 47 8.3 32 32 SW 5 7 29.94 1014 10 16 0.00 0.00
10:53 am 10:53 Sunny 83 28.3 45 7.2 26 26 SSW 6 9 29.93 1014 10 16 0.00 0.00
11:53 am 11:53 Sunny 87 30.6 43 6.1 21 21 VRB 5 7 29.92 1013 10 16 0.00 0.00
12:53 pm 12:53 Sunny 90 32.2 40 4.4 17 17 VRB 3 6 29.91 1013 10 16 0.00 0.00
1:53 pm 13:53 Sunny 92 33.3 37 2.8 14 14 SSE 9 15 29.90 1012 10 16 0.00 0.00
2:53 pm 14:53 Sunny 95 35 33 0.6 11 11 S 15 24 29.88 1012 10 16 0.00 0.00
3:53 pm 15:53 Sunny 95 35 31 -0.6 10 10 S 14 22 29.87 1012 10 16 0.00 0.00
4:53 pm 16:53 Sunny 94 34.4 36 2.2 13 13 S 14 22 29.86 1011 10 16 0.00 0.00
5:53 pm 17:53 Sunny 93 33.9 35 1.7 13 13 SE 14 22 29.85 1011 10 16 0.00 0.00
6:53 pm 18:53 Sunny 93 33.9 32 0 11 11 SSE 13 20 29.84 1011 10 16 0.00 0.00
7:53 pm 19:53 Sunny 91 32.8 34 1.1 13 13 S 10 17 29.84 1011 10 16 0.00 0.00
8:53 pm 20:53 Clear 86 30 38 3.3 18 18 SSE 8 13 29.85 1011 10 16 0.00 0.00
9:53 pm 21:53 Clear 81 27.2 41 5 24 24 SE 7 11 29.86 1011 10 16 0.00 0.00
10:53 pm 22:53 Clear 80 26.7 45 7.2 29 29 Calm 29.88 1012 10 16 0.00 0.00
11:53 pm 23:53 Clear 74 23.3 48 8.9 40 40 Calm 29.89 1012 10 16 0.00 0.00

Powered by AerisWeather